Wind_Speed
18 19 19 19 20 20 20 19 18 17 17 17 16 15 14 13 12 11 10 10 9 8 7 6 6 6 6 6 6 5 5 4 4 3 3 2 1 1 2 3 4 5 6
20 20 21 21 21 20 20 20 20 19 19 18 18 17 16 15 14 14 13 12 11 10 9 9 8 7 7 7 7 7 6 6 5 5 4 3 3 2 2 3 4 4 5
22 22 22 22 22 22 21 20 20 21 21 20 20 19 19 18 17 15 15 15 14 13 12 11 10 9 9 9 8 8 8 7 7 6 6 5 5 4 4 4 4 5 5
25 25 24 24 24 23 23 22 21 21 21 21 21 21 20 20 19 18 17 17 16 15 14 13 12 11 11 11 10 10 9 9 9 8 8 7 7 6 6 6 6 6 6
29 28 27 26 26 25 25 25 24 23 22 22 21 21 21 21 21 20 20 19 18 17 16 16 15 14 13 13 12 12 11 11 10 10 10 9 9 8 8 8 7 8 8
32 31 30 29 28 28 26 26 26 26 25 24 23 22 22 22 22 22 22 21 20 19 18 18 18 17 16 15 15 14 14 13 12 12 12 12 11 11 10 10 10 10 10
35 34 33 32 31 30 29 28 28 27 27 27 26 25 24 24 23 23 23 23 23 22 21 20 20 19 19 18 17 16 16 15 15 14 14 14 13 13 13 12 12 12 12
37 36 36 35 35 34 33 32 31 30 29 29 28 28 27 26 25 25 25 25 25 24 24 23 22 22 21 20 20 19 18 17 17 16 16 16 16 15 15 14 14 14 14
38 38 37 37 37 37 36 35 34 33 32 31 31 30 30 29 28 27 26 26 26 26 26 25 25 24 23 22 22 21 20 20 19 19 18 18 18 17 17 17 16 16 16
39 39 39 39 39 39 38 37 36 35 34 34 33 33 32 32 31 30 29 28 28 28 28 27 27 26 25 24 24 23 23 22 22 21 21 20 20 20 19 19 19 18 18
40 40 40 40 40 41 40 40 39 38 37 36 36 35 35 35 35 34 33 32 30 30 29 29 29 28 27 27 26 25 25 25 24 23 23 22 22 22 22 21 21 21 20
41 41 41 41 42 42 42 42 42 42 41 40 39 38 37 37 37 36 36 35 34 32 31 31 30 30 29 29 28 28 27 27 26 25 25 25 24 24 24 24 23 23 23
41 41 42 42 42 43 44 44 44 44 43 42 42 41 40 39 39 39 38 37 36 35 34 33 32 31 31 31 30 30 30 29 28 27 27 26 26 26 26 26 25 25 25
41 42 43 43 43 44 45 45 46 46 46 45 44 43 42 42 41 40 40 39 39 38 37 36 35 34 33 33 32 31 31 31 30 30 29 29 28 28 28 28 27 27 27
41 43 43 44 45 45 45 46 47 47 47 47 46 45 45 44 43 43 41 41 41 40 39 38 38 37 35 35 34 34 33 33 32 32 31 31 30 30 30 30 29 29 29
41 43 44 45 45 46 46 46 47 47 48 48 47 47 46 46 45 45 44 43 43 42 41 40 40 39 38 37 36 36 36 36 35 34 33 32 32 32 32 31 31 31 31
43 43 44 46 46 47 47 47 47 48 49 49 48 48 48 47 48 47 46 45 44 44 43 43 42 41 40 40 39 38 38 38 37 36 35 35 34 34 34 33 33 33 33
44 45 46 46 47 48 48 48 48 49 49 50 49 50 50 49 49 49 48 47 46 46 45 45 44 43 42 42 41 40 40 40 40 39 38 37 37 36 36 36 35 35 35
46 46 47 48 49 49 50 50 50 50 50 50 51 51 51 51 51 51 50 49 49 49 48 47 46 46 45 44 43 42 41 41 41 40 40 40 39 38 38 38 37 36 36
47 48 48 48 49 50 50 51 51 51 52 52 52 52 53 52 52 53 53 53 52 52 51 49 49 48 47 46 45 44 44 43 42 41 41 41 40 39 38 38 38 37 37
47 48 48 49 50 50 51 51 51 51 51 51 51 52 54 54 53 53 53 54 54 54 54 53 52 50 48 48 47 46 45 44 43 43 42 41 41 41 40 40 39 39 39
46 47 48 49 49 50 50 51 51 51 51 51 52 51 53 54 54 54 54 54 54 55 55 55 55 52 51 49 49 48 48 46 45 45 43 42 41 41 42 41 41 40 40
43 45 46 47 49 50 51 51 51 52 52 52 53 53 53 54 56 56 57 57 56 55 56 56 55 55 54 53 52 51 50 50 48 47 45 44 43 43 43 43 42 41 41
39 41 42 43 45 46 47 49 50 51 51 52 53 54 54 54 55 56 57 58 58 58 57 56 57 57 55 54 54 52 51 50 51 49 48 47 45 44 43 42 42 41 40
35 37 39 40 41 43 44 45 47 48 49 50 50 51 52 53 53 54 56 58 59 58 57 56 56 57 56 55 55 53 53 52 51 50 48 47 46 45 45 43 42 42 42
31 33 34 36 37 39 40 42 43 45 46 47 48 49 50 50 51 52 53 55 57 58 57 56 56 56 56 56 56 55 54 52 51 50 49 48 47 46 46 46 45 44 44
Wind_Direction
247 248 250 251 251 251 251 252 252 252 252 252 252 253 254 255 256 255 255 253 249 247 247 244 240 236 231 227 223 220 218 219 222 224 226 230 251 306 342 354 360 3 4
250 250 251 252 252 252 253 253 253 252 253 253 252 253 254 255 256 256 255 254 252 250 248 248 247 245 241 239 235 231 230 232 234 235 239 244 252 268 291 315 331 340 346
252 251 252 253 253 253 253 254 255 254 254 254 253 252 253 255 256 258 257 256 255 254 251 250 250 250 246 244 241 240 239 240 241 241 244 248 254 262 273 287 303 317 326
253 252 253 253 254 253 254 254 255 256 255 254 254 254 254 254 256 257 258 257 257 256 254 253 251 251 251 248 246 245 245 245 246 246 247 250 254 260 266 275 286 298 308
252 252 253 253 254 255 254 254 254 255 256 255 255 255 255 255 255 256 257 258 258 258 257 255 253 252 252 252 250 249 249 248 249 250 251 253 256 260 264 270 278 287 295
252 252 253 254 254 255 256 256 256 255 256 256 256 256 256 256 256 256 257 258 259 259 259 258 256 254 253 253 253 252 252 252 252 252 253 254 257 261 264 267 273 280 287
252 253 253 254 254 255 255 256 256 257 257 257 257 257 258 258 258 258 257 257 258 258 259 259 258 257 255 254 254 254 254 254 254 254 255 256 258 261 263 267 271 276 281
252 252 253 254 254 255 255 255 256 256 256 257 257 257 258 258 259 259 259 258 258 257 258 259 259 258 257 256 255 255 255 255 255 256 257 258 259 261 263 267 270 273 277
252 252 252 253 254 255 255 256 256 256 257 256 257 257 257 257 258 259 260 259 259 258 258 258 258 259 258 258 258 257 256 257 257 258 259 259 259 260 263 266 269 273 276
253 253 253 253 253 254 255 256 256 257 257 257 257 257 256 257 258 258 259 259 258 258 258 258 258 259 259 258 259 259 258 258 259 259 259 261 262 262 263 265 268 272 275
253 253 253 253 253 254 254 255 256 257 257 257 258 258 257 256 257 258 259 259 259 259 258 258 258 259 259 259 259 259 259 258 259 260 260 262 263 264 265 266 268 270 273
253 253 253 253 253 254 254 254 255 256 257 257 258 258 257 257 257 257 258 258 259 259 259 259 259 260 260 260 260 260 260 260 260 261 262 262 264 265 266 268 269 271 273
253 254 255 255 254 254 255 255 255 256 256 257 257 257 257 257 257 257 257 257 257 258 258 259 260 261 261 261 261 260 261 261 261 262 263 264 265 266 267 269 270 272 274
254 254 255 256 256 256 256 256 256 256 256 256 257 257 257 256 257 256 256 256 257 257 258 259 260 261 261 261 261 261 261 261 262 262 263 264 266 267 268 270 271 272 274
255 255 255 256 257 257 257 257 257 256 256 257 257 257 256 256 256 256 255 256 256 257 258 258 259 260 261 262 261 260 260 261 262 263 264 264 265 267 269 270 271 273 275
256 256 256 256 257 257 258 258 258 257 257 257 257 256 256 255 255 255 254 255 256 257 257 258 258 259 260 261 261 261 261 260 261 263 264 265 266 267 268 270 271 273 275
258 258 258 257 257 257 258 258 258 257 257 256 257 256 255 255 254 255 255 255 255 256 256 257 258 259 260 260 260 261 261 261 261 262 264 264 265 266 268 270 271 272 274
259 259 258 258 258 258 258 259 258 258 257 256 256 255 255 254 255 255 254 254 255 255 255 256 256 257 259 259 260 260 260 261 261 262 263 263 265 266 267 269 270 272 273
259 259 259 259 259 259 259 259 259 258 258 257 255 255 254 253 254 255 253 253 254 254 254 254 255 256 257 258 259 259 260 261 262 262 262 262 263 265 267 269 269 271 273
260 260 259 259 259 259 259 259 259 259 259 258 257 255 254 253 254 254 253 253 254 254 254 253 254 255 256 257 257 258 260 262 262 263 264 264 264 264 265 267 269 270 272
261 260 260 259 259 258 258 259 258 258 258 258 257 256 254 253 254 254 254 253 253 254 253 253 253 255 256 256 256 257 258 260 262 264 264 264 264 263 264 266 268 269 270
263 262 261 260 259 259 258 258 258 257 257 257 256 256 254 254 254 253 254 254 253 253 252 253 253 253 254 255 256 256 257 260 263 264 263 264 265 265 265 266 267 269 271
264 263 262 261 260 259 258 258 257 257 257 256 256 256 255 254 253 253 252 253 253 253 253 253 253 253 253 253 255 257 259 260 261 262 263 265 266 266 266 266 268 269 270
266 265 263 262 261 260 259 258 258 257 257 257 256 255 255 254 253 253 252 252 252 252 253 253 252 252 251 252 254 256 259 259 259 261 262 264 265 266 266 267 267 268 270
268 267 265 264 263 261 260 259 258 257 257 256 256 255 254 254 254 253 252 252 251 251 252 252 252 251 251 252 253 255 258 259 260 260 260 261 263 265 265 266 266 268 269
272 270 269 266 264 261 260 259 259 258 256 256 256 254 254 254 253 253 252 252 251 251 250 250 250 250 250 251 253 253 255 257 259 260 260 260 262 263 263 264 265 267 267
Height
5858 5859 5860 5862 5863 5864 5866 5867 5869 5870 5871 5872 5873 5874 5875 5875 5876 5877 5877 5878 5878 5878 5879 5879 5879 5879 5879 5879 5879 5879 5879 5880 5880 5880 5880 5880 5880 5880 5880 5880 5880 5879 5879
5855 5856 5857 5859 5860 5862 5863 5864 5866 5867 5868 5869 5871 5872 5873 5874 5874 5875 5876 5877 5877 5877 5878 5878 5878 5878 5878 5879 5879 5879 5879 5879 5879 5879 5880 5880 5880 5880 5879 5879 5879 5879 5879
5851 5853 5854 5856 5857 5859 5860 5861 5863 5864 5865 5867 5868 5869 5870 5871 5872 5873 5874 5875 5875 5876 5876 5877 5877 5877 5877 5878 5878 5878 5878 5878 5878 5879 5879 5879 5879 5879 5879 5879 5878 5878 5878
5847 5849 5851 5852 5854 5855 5857 5858 5859 5861 5862 5864 5865 5866 5867 5869 5870 5871 5872 5873 5873 5874 5875 5875 5876 5876 5876 5876 5877 5877 5877 5877 5877 5877 5878 5878 5878 5878 5877 5877 5877 5877 5877
5843 5845 5847 5849 5850 5852 5853 5855 5856 5857 5859 5860 5862 5863 5864 5865 5867 5868 5869 5870 5871 5872 5873 5873 5874 5874 5874 5875 5875 5875 5875 5876 5876 5876 5876 5876 5876 5876 5876 5876 5876 5876 5875
5838 5840 5842 5844 5846 5847 5849 5851 5852 5854 5855 5857 5858 5860 5861 5862 5863 5865 5866 5867 5868 5869 5870 5871 5871 5872 5872 5872 5873 5873 5874 5874 5874 5874 5874 5874 5874 5874 5874 5874 5874 5874 5874
5833 5835 5837 5839 5841 5843 5845 5846 5848 5849 5851 5853 5854 5856 5857 5858 5860 5861 5862 5863 5864 5866 5867 5867 5868 5869 5869 5870 5870 5871 5871 5872 5872 5872 5872 5872 5872 5872 5872 5872 5872 5872 5872
5827 5829 5831 5834 5836 5838 5840 5841 5843 5845 5846 5848 5850 5851 5853 5854 5855 5857 5858 5859 5860 5862 5863 5864 5865 5866 5866 5867 5867 5868 5869 5869 5869 5870 5870 5870 5870 5870 5870 5870 5870 5870 5869
5821 5823 5825 5827 5830 5832 5834 5836 5838 5839 5841 5843 5844 5846 5848 5849 5851 5852 5854 5855 5856 5857 5858 5860 5861 5862 5863 5863 5864 5865 5865 5866 5866 5867 5867 5867 5867 5867 5867 5867 5867 5867 5867
5814 5817 5819 5821 5823 5825 5827 5830 5832 5834 5835 5837 5839 5841 5842 5844 5845 5847 5849 5850 5851 5853 5854 5855 5856 5857 5859 5860 5860 5861 5862 5862 5863 5863 5863 5864 5864 5864 5864 5864 5864 5864 5864
5807 5810 5812 5814 5817 5819 5821 5823 5825 5827 5829 5831 5833 5834 5836 5838 5840 5841 5843 5845 5846 5847 5849 5850 5851 5853 5854 5855 5856 5857 5858 5858 5859 5859 5860 5860 5860 5860 5860 5860 5860 5860 5860
5800 5802 5805 5807 5809 5811 5813 5816 5818 5820 5822 5824 5826 5828 5830 5831 5833 5835 5837 5839 5840 5842 5843 5845 5846 5847 5849 5850 5851 5852 5853 5854 5855 5855 5856 5856 5856 5856 5856 5856 5856 5856 5856
5792 5795 5797 5799 5801 5804 5806 5808 5810 5812 5814 5816 5818 5820 5822 5824 5826 5828 5830 5832 5834 5836 5838 5839 5840 5842 5843 5844 5846 5847 5848 5849 5850 5850 5851 5851 5852 5852 5852 5852 5852 5852 5852
5785 5787 5789 5791 5793 5795 5797 5799 5801 5804 5806 5808 5810 5812 5815 5817 5819 5821 5823 5825 5827 5829 5831 5833 5834 5835 5837 5838 5840 5841 5842 5843 5844 5845 5846 5846 5847 5847 5847 5847 5847 5847 5847
5776 5778 5780 5782 5784 5786 5788 5790 5793 5794 5797 5799 5801 5804 5806 5808 5811 5813 5815 5817 5820 5822 5824 5825 5827 5829 5830 5832 5833 5835 5836 5837 5838 5839 5840 5841 5841 5842 5842 5842 5842 5842 5842
5767 5769 5771 5773 5775 5777 5779 5781 5783 5785 5787 5789 5792 5794 5797 5799 5802 5804 5806 5809 5812 5814 5816 5818 5820 5821 5823 5825 5826 5827 5829 5830 5831 5833 5834 5834 5835 5836 5836 5836 5836 5836 5836
5758 5760 5761 5763 5765 5767 5769 5771 5773 5775 5777 5779 5782 5784 5787 5789 5792 5795 5797 5800 5803 5805 5807 5810 5812 5814 5815 5817 5819 5820 5821 5823 5824 5825 5827 5828 5828 5829 5829 5830 5830 5830 5830
5748 5750 5751 5753 5755 5756 5758 5760 5762 5765 5767 5769 5771 5774 5776 5779 5782 5785 5788 5791 5794 5796 5798 5801 5803 5805 5807 5809 5810 5812 5813 5815 5816 5817 5819 5820 5821 5821 5822 5822 5823 5823 5823
5737 5739 5740 5742 5744 5745 5747 5749 5751 5753 5756 5758 5760 5763 5766 5768 5771 5774 5777 5781 5783 5786 5788 5791 5793 5796 5798 5799 5801 5802 5804 5806 5807 5809 5810 5812 5813 5813 5814 5815 5815 5815 5815
5726 5727 5729 5730 5732 5733 5735 5737 5739 5742 5744 5746 5749 5751 5754 5757 5760 5763 5766 5770 5773 5775 5778 5781 5783 5786 5788 5790 5792 5793 5795 5797 5798 5800 5801 5803 5804 5805 5806 5806 5807 5807 5807
5714 5715 5717 5718 5720 5721 5723 5725 5727 5729 5731 5734 5736 5739 5742 5745 5748 5751 5755 5758 5761 5764 5767 5770 5772 5775 5778 5779 5782 5784 5785 5787 5789 5791 5792 5793 5795 5796 5797 5797 5798 5798 5799
5702 5703 5704 5706 5707 5708 5710 5712 5714 5716 5719 5721 5724 5727 5730 5733 5736 5739 5742 5746 5749 5752 5755 5758 5762 5764 5766 5769 5771 5772 5775 5778 5779 5781 5782 5784 5785 5786 5787 5788 5789 5789 5790
5691 5691 5692 5693 5694 5695 5697 5699 5701 5703 5706 5708 5711 5714 5717 5720 5723 5726 5730 5733 5736 5739 5743 5746 5749 5752 5755 5758 5759 5761 5764 5767 5769 5771 5772 5774 5775 5776 5777 5778 5779 5780 5780
5680 5680 5680 5681 5681 5682 5684 5685 5688 5690 5693 5696 5698 5701 5704 5706 5709 5713 5716 5719 5723 5726 5730 5733 5737 5740 5742 5745 5748 5750 5753 5755 5757 5760 5762 5763 5765 5766 5767 5768 5769 5770 5770
5670 5669 5669 5669 5669 5670 5671 5672 5674 5677 5679 5682 5684 5686 5690 5693 5696 5699 5702 5705 5709 5712 5716 5720 5723 5726 5729 5733 5736 5738 5741 5743 5745 5748 5751 5753 5754 5755 5756 5757 5758 5759 5760
5661 5660 5659 5658 5658 5658 5659 5660 5662 5664 5666 5668 5670 5673 5676 5680 5683 5686 5689 5692 5695 5698 5702 5706 5709 5713 5716 5720 5723 5726 5729 5731 5734 5736 5738 5740 5742 5744 5745 5746 5747 5749 5749